Location: El Álamo
(40.2307°N, 3.9945°W)
Time: 04:34:52
(UTC+00:00)

Lacrosse 4 Rocket - Pass Details

Date: 19 May 2025
Orbit: 513 x 576 km, 68.0° (Epoch: 23 June)

Event Time Altitude Azimuth Distance (km) Brightness Sun altitude
Rises 20:13:56 0° 237° (WSW) 2,622 5.1 -8.2°
Reaches altitude 10° 20:16:24 10° 253° (WSW) 1,745 4.4 -8.6°
Maximum altitude 20:19:33 23° 307° (NW) 1,143 4.1 -9.0°
Drops below altitude 10° 20:22:45 10° 1° (N) 1,777 4.4 -9.5°
Sets 20:25:18 0° 16° (NNE) 2,683 5.1 -9.9°
